Wetbulb
55.70 56.06 55.48 54.24 54.83 54.43 54.08 54.39 54.26 54.03 53.67 53.50 53.70 52.95 53.55 53.64 54.82 54.79 53.37 53.27 52.30 54.11 54.36 52.83 54.13 54.02 51.57 50.82 52.20 52.15 50.41 51.45 47.38 49.22 52.42 54.68 53.33 52.67 54.78 55.59 56.32 55.91 56.11
54.53 54.43 53.81 54.47 53.88 53.88 53.84 53.81 53.99 53.18 53.98 53.54 54.00 53.69 53.86 53.67 53.82 53.08 52.28 51.83 51.16 51.30 52.70 52.66 52.16 50.39 51.84 50.23 50.74 47.93 49.12 52.41 50.84 48.69 52.27 53.19 53.49 52.89 52.71 54.31 54.71 55.59 55.95
53.74 53.98 53.49 53.35 53.79 54.21 53.43 53.86 54.10 53.48 53.60 53.57 53.42 53.05 52.96 52.60 52.27 52.26 50.43 50.34 51.52 51.58 52.02 51.43 51.06 50.69 49.47 50.00 50.56 47.14 48.08 50.76 53.71 51.56 50.72 52.65 53.86 52.20 50.91 52.15 53.52 54.37 57.10
51.25 53.68 53.50 54.55 54.59 54.59 54.08 53.52 53.68 53.27 53.10 52.77 52.78 52.38 52.19 52.22 51.38 49.27 49.02 49.28 50.33 51.40 51.97 51.95 50.97 49.61 48.81 49.32 49.16 49.03 47.77 49.36 51.09 49.98 49.98 51.31 51.13 50.94 49.91 48.71 48.71 53.93 52.90
52.91 52.62 53.32 54.10 54.68 54.35 53.52 52.82 53.65 52.98 53.12 52.94 52.36 52.39 52.48 51.82 47.75 46.96 47.28 47.53 49.12 50.02 51.26 51.19 50.82 50.15 49.40 49.45 47.44 48.13 48.75 47.73 48.64 49.82 49.83 49.60 49.67 48.90 46.77 47.85 48.21 52.17 52.75
52.05 52.07 53.58 53.65 53.32 53.74 53.92 52.75 52.65 52.88 52.99 52.94 52.15 51.69 50.31 48.71 44.48 44.78 45.60 46.88 49.15 48.63 49.70 50.01 49.96 50.31 49.00 48.98 47.45 48.24 48.64 48.18 48.90 48.14 49.06 47.94 48.74 49.20 48.95 48.27 47.25 48.35 49.39
52.70 53.22 52.70 52.61 52.48 52.94 53.21 52.90 52.55 52.52 53.01 52.47 51.98 51.59 48.59 48.20 43.93 43.40 44.31 46.63 48.59 49.25 47.92 47.58 48.49 48.33 48.12 46.34 45.56 47.06 49.16 49.46 49.63 50.28 49.25 49.56 49.11 50.40 50.31 48.11 47.58 46.78 49.68
52.48 52.46 52.58 52.66 52.07 52.80 52.58 52.48 52.94 53.24 52.44 52.09 51.93 51.60 49.51 48.87 44.13 42.62 43.43 47.85 48.58 48.43 48.23 48.53 48.49 48.47 42.53 43.91 44.51 45.80 47.41 48.87 49.53 48.08 49.92 50.51 50.61 51.06 50.63 50.07 49.00 47.52 51.77
51.97 51.97 51.97 52.08 51.61 52.07 52.08 52.04 52.77 52.40 52.33 52.08 52.06 51.32 50.61 49.55 43.28 42.36 43.76 47.47 47.06 46.48 47.22 47.95 46.07 45.31 41.51 41.29 43.99 43.44 44.85 46.26 47.60 47.04 47.66 46.79 45.55 45.26 46.63 51.02 46.36 45.39 48.32
51.63 52.07 52.53 52.26 51.38 51.37 51.92 52.26 53.08 52.68 51.75 51.46 51.66 52.43 51.01 49.57 43.27 42.07 43.77 46.31 45.32 45.13 46.00 45.90 44.56 42.81 41.28 41.08 43.60 42.74 40.38 42.08 44.00 45.63 48.03 50.04 49.44 51.23 48.06 50.81 47.38 44.71 44.85
52.33 52.49 52.66 52.90 52.73 52.39 52.28 52.37 52.30 51.93 51.91 51.89 51.47 52.52 53.33 50.41 48.84 42.61 42.12 45.95 44.61 43.53 44.26 44.42 45.54 42.72 40.76 40.72 40.38 43.35 42.83 41.91 43.27 44.57 45.45 47.84 49.97 50.87 51.18 52.03 50.11 46.69 45.03
52.02 52.53 52.24 52.41 51.70 50.92 52.26 51.88 51.96 51.84 51.25 52.11 51.39 51.05 51.28 52.17 43.89 43.69 42.23 42.07 42.92 43.37 43.07 44.04 44.35 40.91 40.04 40.26 41.48 40.58 40.06 41.01 42.30 41.83 42.55 43.37 44.94 46.42 48.32 50.42 52.00 49.90 48.80
52.51 52.51 52.04 52.15 52.24 51.63 51.58 51.06 49.92 52.36 50.04 48.90 48.59 48.59 48.91 48.63 48.45 43.97 42.22 41.42 42.76 42.53 43.54 42.32 40.79 40.40 40.37 41.67 41.24 40.55 41.33 41.60 40.89 39.42 39.48 40.74 42.47 44.31 47.92 49.70 51.75 52.06 51.07
52.82 52.62 52.87 51.89 50.82 52.17 51.12 50.58 49.37 49.25 48.14 47.25 47.06 46.87 47.00 46.20 45.91 45.32 44.21 44.02 42.32 42.04 42.09 43.20 41.50 41.29 40.56 41.40 41.02 41.74 41.82 41.57 39.91 38.48 38.29 39.77 41.57 41.88 44.06 46.07 46.75 48.81 49.02
51.99 51.24 50.88 50.17 51.41 51.30 51.61 50.40 49.34 51.29 47.07 47.53 47.64 46.79 44.48 43.12 43.56 40.04 39.76 41.33 42.08 41.03 39.68 42.65 41.71 41.31 39.70 39.40 39.54 39.96 40.59 40.68 39.01 39.90 39.59 40.20 39.78 40.41 41.35 43.17 44.79 46.66 46.23
51.14 50.44 49.64 49.17 49.48 49.54 49.37 49.80 40.93 42.56 41.59 41.18 40.12 41.42 46.29 40.45 38.54 38.06 38.14 37.72 37.44 37.67 39.84 38.31 37.99 38.62 38.24 38.05 37.73 39.33 39.55 39.29 39.28 39.65 39.62 40.47 39.89 39.89 40.09 41.61 43.19 43.16 43.26
51.06 51.09 48.78 48.22 48.69 49.07 49.40 49.90 49.27 43.16 40.44 39.59 40.27 41.59 40.53 38.72 38.00 37.76 37.66 37.45 37.34 38.42 37.99 37.14 36.67 36.58 36.42 37.10 37.53 38.36 38.14 39.21 40.31 40.29 39.65 40.33 41.54 40.55 39.11 40.23 41.41 41.84 42.04
51.80 45.85 48.56 48.05 48.63 48.61 49.82 50.15 50.37 49.77 47.97 46.60 41.98 41.12 40.52 39.02 38.34 37.77 37.69 39.24 39.81 39.06 38.06 36.51 36.26 36.41 36.51 36.51 36.93 37.28 37.91 39.23 39.29 39.26 39.26 39.85 41.26 40.43 38.80 39.62 40.27 40.84 41.14
51.51 50.17 48.10 48.36 49.69 48.85 50.53 50.32 50.27 49.51 47.31 45.91 46.99 43.77 41.99 40.56 39.29 38.36 38.80 39.57 37.49 37.25 37.38 36.97 37.17 36.81 36.56 36.57 37.16 37.38 37.50 38.03 38.32 38.84 39.43 40.12 40.92 39.34 38.34 38.99 39.62 36.51 37.74
51.05 43.91 43.51 48.91 50.19 49.98 49.60 49.80 49.38 48.71 46.35 45.41 43.86 43.65 44.87 43.40 43.79 44.12 42.83 40.54 38.76 37.98 37.64 37.34 37.57 37.78 37.54 37.31 36.77 36.74 36.95 37.71 38.54 38.93 39.59 40.10 41.01 38.91 37.90 38.49 39.40 39.60 40.68
49.45 49.89 42.32 50.41 50.21 49.42 48.91 49.53 49.70 47.02 44.98 44.04 43.75 41.54 33.63 41.91 42.45 41.76 40.52 39.80 38.25 38.05 37.96 37.87 37.99 38.18 38.18 38.05 37.93 37.60 36.60 36.74 37.09 37.59 38.38 38.51 38.30 37.33 38.03 38.46 39.21 40.40 41.61
49.14 49.24 50.43 50.24 49.87 48.80 48.52 50.02 49.15 46.10 45.05 43.85 43.39 42.50 35.24 42.87 42.60 42.97 42.57 42.01 39.57 39.07 39.25 38.53 37.90 38.18 38.47 38.04 37.86 37.37 36.67 36.83 37.08 37.74 37.96 38.36 38.05 37.75 37.95 38.28 39.25 40.81 42.16
49.19 49.72 50.17 49.96 49.74 44.75 49.15 49.81 47.16 45.63 44.80 43.98 42.85 41.68 41.59 41.66 41.96 42.65 42.85 43.09 40.34 40.33 39.86 39.03 38.49 38.12 38.35 38.54 38.87 38.52 37.21 36.99 37.60 37.90 36.71 36.67 36.95 37.62 38.46 38.68 39.47 39.99 41.55
49.92 50.28 49.74 49.41 48.75 48.32 49.42 48.97 46.49 41.12 44.36 43.72 41.97 40.75 40.39 40.61 40.88 42.24 42.89 42.40 40.28 39.06 39.39 39.19 38.96 38.76 38.77 39.21 39.55 39.45 39.22 39.09 38.24 36.74 36.06 35.43 35.93 36.63 37.57 38.19 38.95 40.17 41.67
50.14 49.69 49.56 49.23 48.61 48.56 49.53 48.57 46.90 45.96 45.53 43.95 41.51 40.79 40.25 40.32 40.31 41.22 41.96 41.44 40.18 39.05 38.42 38.63 38.53 38.67 38.82 39.26 39.89 39.13 35.05 32.56 33.03 33.12 34.34 34.85 35.70 36.69 37.56 38.26 39.14 40.25 41.88
49.64 49.20 49.15 48.84 48.21 48.75 49.31 47.66 46.64 46.77 45.71 43.44 43.04 41.13 39.60 39.07 39.55 40.10 40.65 39.46 39.23 38.68 38.50 38.49 38.39 38.61 38.68 39.15 38.79 33.52 32.76 32.61 33.10 32.53 34.37 36.17 37.84 39.70 40.39 40.53 41.41 41.82 42.33
MSLP
1019.68 1019.67 1019.83 1019.98 1019.94 1020.01 1019.90 1019.63 1019.47 1019.27 1018.81 1018.35 1018.01 1017.67 1017.33 1017.07 1016.98 1016.89 1016.79 1016.22 1016.11 1015.59 1015.18 1014.89 1014.32 1014.03 1013.90 1013.61 1013.10 1013.01 1012.42 1011.60 1010.70 1009.53 1008.42 1007.32 1006.87 1006.20 1005.18 1004.36 1003.91 1003.46 1002.69
1019.77 1019.91 1020.20 1020.28 1020.30 1019.98 1019.99 1019.61 1019.60 1019.27 1018.66 1018.25 1017.79 1017.44 1017.05 1016.83 1016.79 1016.51 1016.29 1016.19 1015.67 1015.23 1014.86 1014.67 1014.28 1014.14 1013.80 1013.61 1013.02 1013.08 1012.32 1011.22 1010.41 1009.23 1008.10 1007.00 1006.62 1006.35 1005.55 1004.50 1003.92 1003.30 1002.85
1020.00 1020.05 1020.35 1020.32 1020.16 1019.97 1019.87 1019.70 1019.53 1019.30 1018.69 1018.27 1017.92 1017.56 1017.17 1017.09 1016.81 1016.58 1016.97 1016.48 1015.49 1015.16 1014.88 1014.64 1014.26 1013.93 1013.57 1013.24 1012.87 1012.88 1012.12 1011.07 1009.91 1009.01 1007.61 1006.83 1006.27 1006.36 1005.69 1004.94 1004.14 1003.40 1002.77
1020.54 1020.23 1020.12 1019.92 1019.99 1019.84 1019.79 1019.64 1019.54 1019.31 1018.77 1018.56 1018.22 1017.85 1017.54 1017.15 1017.07 1017.54 1017.46 1016.84 1015.76 1015.11 1014.92 1014.41 1014.12 1013.98 1013.62 1013.21 1012.79 1012.29 1011.90 1011.03 1009.87 1008.86 1007.86 1006.56 1006.36 1006.53 1006.31 1005.57 1004.54 1003.70 1003.08
1019.92 1019.93 1019.99 1020.07 1019.88 1019.74 1019.78 1019.80 1019.57 1019.20 1018.86 1018.65 1018.21 1017.84 1017.56 1017.42 1018.10 1018.16 1017.67 1016.95 1015.95 1015.28 1014.79 1014.29 1014.03 1013.78 1013.54 1013.26 1012.95 1012.13 1011.50 1011.00 1009.81 1008.59 1007.47 1007.31 1006.48 1006.45 1006.43 1006.06 1005.26 1004.21 1003.32
1019.95 1019.93 1019.70 1019.75 1019.76 1019.49 1019.39 1019.44 1019.21 1019.06 1018.88 1018.59 1018.24 1017.97 1018.19 1018.35 1018.69 1018.30 1017.92 1016.97 1015.78 1015.41 1014.56 1014.13 1013.99 1013.54 1013.35 1013.00 1012.92 1012.23 1011.41 1010.59 1009.81 1008.91 1008.07 1007.69 1007.17 1006.80 1006.78 1006.45 1005.83 1004.70 1003.81
1019.87 1019.51 1019.41 1019.48 1019.40 1019.18 1019.03 1018.98 1018.89 1018.92 1018.78 1018.42 1018.17 1017.95 1018.44 1018.52 1018.63 1018.34 1017.78 1016.83 1015.91 1015.29 1014.87 1014.42 1013.92 1013.43 1013.37 1013.30 1012.80 1011.72 1010.53 1010.03 1009.67 1009.23 1008.34 1007.92 1007.43 1007.02 1007.02 1006.58 1006.10 1005.51 1004.56
1019.50 1019.31 1019.10 1019.14 1018.97 1018.99 1018.78 1018.54 1018.54 1018.57 1018.45 1018.10 1017.86 1017.70 1018.08 1017.82 1018.17 1018.11 1017.63 1016.57 1015.82 1015.36 1014.88 1014.39 1013.98 1013.62 1013.89 1013.60 1012.82 1011.58 1010.57 1009.92 1009.42 1009.19 1008.52 1008.03 1007.68 1007.35 1007.11 1006.80 1006.43 1005.62 1004.63
1019.18 1019.20 1019.16 1019.07 1018.95 1018.72 1018.43 1018.42 1018.38 1018.26 1018.10 1017.71 1017.41 1017.31 1017.48 1017.42 1017.69 1017.70 1017.22 1016.47 1015.70 1015.32 1014.82 1014.13 1014.14 1013.95 1013.84 1013.64 1012.80 1011.76 1010.96 1010.07 1009.20 1008.88 1008.46 1007.88 1007.60 1007.18 1007.05 1006.23 1006.27 1005.79 1004.80
1019.20 1019.31 1019.27 1019.08 1018.96 1018.74 1018.56 1018.50 1018.28 1018.05 1017.68 1017.25 1017.07 1016.85 1016.53 1016.70 1017.30 1017.24 1017.03 1016.23 1015.62 1015.11 1014.65 1014.20 1013.91 1013.99 1013.72 1013.36 1012.79 1011.96 1011.47 1010.62 1009.90 1009.05 1008.33 1007.39 1006.94 1006.50 1006.66 1006.71 1006.59 1006.36 1005.81
1019.46 1019.33 1019.15 1018.96 1018.81 1018.48 1018.38 1018.33 1018.00 1017.65 1017.40 1017.11 1016.62 1016.19 1015.67 1016.01 1016.56 1016.82 1016.92 1016.51 1015.88 1015.41 1014.56 1013.94 1013.58 1013.44 1013.29 1013.00 1012.63 1012.05 1011.36 1011.13 1009.99 1009.17 1008.17 1007.49 1006.89 1006.49 1006.23 1006.24 1006.57 1006.54 1006.27
1019.43 1019.21 1018.95 1018.85 1018.77 1018.39 1018.30 1018.07 1017.68 1017.21 1016.68 1016.14 1015.69 1015.33 1015.08 1015.74 1016.34 1016.67 1016.81 1016.61 1016.15 1015.43 1014.69 1014.14 1013.76 1013.45 1013.18 1012.72 1012.22 1011.80 1011.45 1010.92 1010.17 1009.50 1008.90 1008.24 1007.66 1007.15 1006.76 1006.55 1006.17 1006.24 1006.15
1019.22 1018.97 1018.83 1018.72 1018.47 1018.38 1017.93 1017.57 1016.98 1016.56 1016.33 1016.12 1015.61 1015.43 1015.58 1016.20 1016.58 1016.69 1016.74 1016.44 1015.99 1015.52 1014.87 1014.37 1013.76 1013.32 1012.84 1012.17 1011.70 1011.41 1010.98 1010.47 1010.20 1009.91 1009.47 1009.00 1008.74 1008.29 1007.34 1006.62 1006.07 1005.88 1005.77
1018.98 1018.80 1018.58 1018.40 1018.14 1017.91 1017.71 1017.05 1016.99 1016.77 1017.18 1017.05 1016.70 1016.77 1016.73 1016.90 1016.92 1017.23 1016.98 1016.43 1015.86 1015.26 1014.63 1013.72 1013.46 1013.02 1012.47 1011.95 1011.57 1010.99 1010.67 1010.47 1010.45 1010.31 1010.05 1009.68 1009.32 1008.74 1007.77 1007.20 1006.46 1005.91 1005.50
1019.11 1018.90 1018.67 1018.39 1018.01 1017.56 1016.97 1016.95 1016.96 1017.14 1017.64 1017.81 1017.81 1017.80 1017.54 1017.54 1017.77 1018.11 1017.81 1016.95 1016.29 1015.71 1015.03 1013.64 1013.13 1012.80 1012.37 1011.98 1011.57 1011.12 1010.98 1010.48 1010.46 1010.36 1010.12 1009.71 1009.41 1008.92 1008.29 1007.80 1007.16 1006.44 1005.97
1019.11 1018.72 1018.79 1018.50 1017.76 1017.15 1016.91 1016.61 1017.30 1017.66 1018.19 1018.53 1018.54 1018.55 1018.05 1018.09 1018.15 1017.90 1017.53 1016.88 1016.32 1015.91 1015.22 1014.71 1014.18 1013.68 1013.20 1012.53 1012.00 1011.20 1010.95 1010.56 1010.38 1010.24 1010.02 1009.70 1009.40 1009.07 1008.65 1008.04 1007.58 1007.27 1006.88
1019.18 1019.06 1018.83 1018.18 1017.56 1017.08 1016.76 1016.60 1016.61 1017.94 1018.22 1018.40 1018.28 1018.47 1018.46 1018.09 1017.82 1017.67 1017.33 1016.67 1016.29 1016.07 1015.67 1015.13 1014.68 1014.22 1013.67 1013.07 1012.55 1011.84 1011.19 1010.67 1010.42 1010.16 1009.89 1009.59 1009.17 1009.13 1008.88 1008.37 1008.01 1007.69 1007.36
1019.19 1019.04 1018.77 1018.23 1017.72 1017.36 1016.91 1016.64 1016.37 1016.26 1017.01 1017.54 1017.78 1018.13 1017.99 1017.73 1017.43 1017.38 1017.01 1016.37 1016.14 1015.96 1015.77 1015.30 1014.75 1014.24 1013.74 1013.26 1012.75 1012.21 1011.67 1011.01 1010.50 1010.22 1009.96 1009.63 1009.22 1009.15 1009.00 1008.60 1008.32 1007.99 1007.69
1018.90 1018.55 1018.80 1018.28 1017.35 1017.25 1016.71 1016.45 1016.29 1016.72 1017.26 1017.56 1017.54 1017.81 1017.66 1017.54 1016.73 1016.91 1016.60 1016.73 1016.54 1016.16 1015.72 1015.17 1014.72 1014.20 1013.71 1013.24 1012.71 1012.25 1011.78 1011.25 1010.89 1010.39 1009.92 1009.50 1009.17 1009.29 1009.11 1008.82 1008.51 1008.25 1007.96
1018.46 1018.97 1018.90 1018.00 1017.03 1016.82 1016.80 1016.53 1016.56 1016.87 1017.58 1017.80 1018.06 1017.94 1017.69 1017.45 1016.64 1016.36 1016.50 1016.56 1016.47 1016.17 1015.68 1015.13 1014.55 1013.97 1013.47 1012.99 1012.49 1011.98 1011.50 1011.11 1010.69 1010.28 1009.87 1009.51 1009.16 1009.28 1009.12 1008.84 1008.54 1008.25 1007.93
1018.36 1017.89 1017.99 1017.23 1017.04 1017.26 1017.23 1016.84 1016.78 1017.54 1018.01 1018.25 1018.26 1018.51 1018.51 1018.00 1017.05 1016.81 1016.74 1016.63 1016.55 1016.16 1015.59 1014.96 1014.29 1013.69 1013.12 1012.62 1012.08 1011.56 1011.21 1010.81 1010.47 1010.14 1009.80 1009.55 1009.35 1009.20 1009.04 1008.82 1008.53 1008.21 1007.92
1018.00 1017.71 1017.50 1017.28 1017.44 1017.64 1017.83 1017.09 1017.40 1018.15 1018.29 1018.44 1018.55 1018.52 1018.38 1017.75 1017.23 1016.67 1016.34 1016.21 1016.18 1016.04 1015.43 1014.78 1014.10 1013.48 1012.83 1012.29 1011.75 1011.22 1010.76 1010.31 1009.97 1009.67 1009.42 1009.21 1009.06 1008.93 1008.74 1008.54 1008.32 1008.04 1007.76
1018.06 1017.79 1017.52 1017.43 1017.43 1018.02 1017.60 1017.43 1018.19 1018.43 1018.61 1018.83 1019.08 1018.96 1018.62 1018.06 1017.52 1016.87 1016.30 1015.99 1016.00 1015.66 1015.06 1014.53 1013.87 1013.14 1012.56 1011.89 1011.39 1010.88 1010.27 1009.70 1009.35 1009.12 1008.89 1008.70 1008.51 1008.41 1008.32 1008.19 1008.03 1007.91 1007.68
1018.55 1018.17 1017.84 1017.65 1017.63 1017.75 1017.46 1017.72 1018.43 1018.37 1018.77 1019.19 1019.60 1019.50 1019.13 1018.59 1017.90 1017.12 1016.49 1016.17 1016.05 1015.56 1014.94 1014.29 1013.61 1012.93 1012.07 1011.35 1010.73 1010.08 1009.51 1008.99 1008.63 1008.34 1008.11 1007.94 1007.79 1007.76 1007.75 1007.71 1007.66 1007.55 1007.48
1018.56 1018.32 1017.93 1017.82 1017.74 1017.70 1017.48 1017.86 1018.41 1018.26 1018.66 1019.30 1019.84 1019.74 1019.42 1018.87 1018.24 1017.61 1016.96 1016.49 1016.16 1015.46 1014.82 1014.18 1013.43 1012.63 1011.75 1011.07 1010.17 1009.62 1009.03 1008.44 1008.00 1007.68 1007.51 1007.35 1007.25 1007.19 1007.11 1007.07 1007.06 1007.09 1007.13
1018.84 1018.83 1018.36 1018.17 1018.05 1017.98 1017.72 1018.13 1018.41 1018.19 1018.66 1019.37 1019.55 1019.78 1019.73 1019.31 1018.68 1018.04 1017.33 1016.82 1016.09 1015.41 1014.82 1013.99 1013.18 1012.42 1011.60 1010.74 1010.04 1009.38 1008.62 1007.96 1007.35 1006.95 1006.90 1006.77 1006.57 1006.25 1006.12 1006.21 1006.29 1006.52 1006.71
Wind_Speed
4 4 3 5 5 5 5 8 10 10 10 10 10 10 10 9 9 5 9 9 9 12 9 10 11 9 8 10 7 9 9 7 7 7 11 12 11 13 11 8 7 7 8
4 4 4 6 5 6 6 9 10 10 10 10 10 10 11 11 12 11 14 14 15 11 12 10 11 8 10 9 9 10 11 11 7 12 12 10 9 11 12 8 6 5 7
3 3 3 4 4 5 6 8 9 10 11 11 11 11 11 11 12 11 14 16 15 12 11 9 8 8 10 10 11 8 10 10 10 8 10 8 8 10 11 10 9 6 6
1 3 4 5 6 6 6 8 9 10 10 11 11 11 10 10 11 12 14 16 16 9 11 10 9 9 10 13 12 9 9 12 10 8 9 10 8 9 7 9 10 3 6
4 4 5 5 6 6 6 6 6 8 9 10 10 10 10 10 10 13 15 16 16 12 10 10 7 11 11 12 10 14 13 9 10 11 9 10 10 11 10 9 7 8 3
3 5 5 5 6 5 6 7 7 8 9 9 10 10 12 7 9 14 15 14 15 12 9 10 9 10 11 14 20 22 20 9 12 9 10 7 10 10 10 9 8 6 4
4 5 5 5 6 6 7 7 8 8 9 9 10 9 8 7 6 11 17 13 11 10 10 9 10 8 9 14 19 22 16 13 11 10 10 10 11 11 9 11 10 8 3
4 5 5 6 7 8 7 8 7 8 9 9 9 8 7 5 2 7 14 11 10 11 11 11 10 11 10 13 16 17 15 13 6 9 10 11 10 10 9 7 9 8 3
4 6 6 6 8 9 8 9 9 8 9 10 9 8 9 9 6 3 8 12 9 13 13 13 8 7 9 10 15 17 15 13 12 15 13 12 12 11 7 8 6 7 3
5 5 7 7 8 9 9 9 8 8 10 9 11 10 12 6 8 3 5 10 10 9 10 10 4 4 7 10 13 13 11 13 16 15 13 10 8 6 9 2 3 5 3
5 5 6 7 8 9 7 8 9 9 9 10 11 10 11 3 2 5 5 10 11 12 12 10 8 6 17 17 12 12 12 14 16 11 9 8 7 6 5 5 3 1 3
4 6 6 7 7 7 8 8 9 10 10 9 9 9 8 8 6 7 6 7 11 11 12 9 11 19 18 13 13 7 14 13 6 9 8 8 8 8 8 10 5 3 3
5 6 7 7 8 8 8 9 9 8 9 11 10 10 10 11 9 11 16 14 13 12 10 14 19 11 10 10 8 11 12 5 7 7 8 7 8 10 10 7 5 4 4
6 7 7 7 6 8 8 7 8 8 8 10 10 11 11 9 8 13 13 11 12 11 14 9 10 9 11 9 4 7 6 6 7 5 7 7 7 7 7 8 7 6 3
6 6 6 6 8 8 6 6 6 4 4 7 8 9 10 9 11 9 9 11 11 12 15 8 7 9 8 7 7 8 8 6 6 5 6 5 6 6 5 6 6 6 4
6 6 7 7 8 7 8 7 6 8 8 4 4 5 8 5 10 9 12 13 13 11 9 9 9 9 9 9 9 8 6 7 6 5 5 5 4 5 5 6 4 5 5
5 6 6 8 6 7 8 7 8 6 6 8 8 7 10 7 8 7 10 14 4 10 5 5 6 7 8 8 8 8 8 7 7 5 6 6 5 4 5 5 4 4 3
6 7 6 9 9 8 8 8 7 7 9 9 4 10 5 6 7 6 8 11 9 7 5 7 7 7 6 6 7 7 7 8 7 6 6 6 5 4 4 4 4 4 4
6 5 7 6 7 6 7 8 8 9 8 8 9 8 6 14 14 7 5 6 7 7 8 8 7 7 7 7 6 6 7 7 7 7 6 5 5 4 4 4 4 5 4
4 3 7 6 6 7 8 7 7 8 8 9 8 8 10 13 9 9 9 8 7 7 8 8 8 7 7 7 6 6 5 6 6 6 6 6 4 3 4 4 4 4 3
5 2 4 7 7 7 7 8 8 9 8 9 7 5 5 10 9 8 9 7 6 8 9 9 9 8 7 7 7 6 5 6 5 5 5 5 4 4 4 4 4 4 3
5 5 5 6 6 7 7 8 10 9 9 9 9 10 8 8 9 10 8 9 4 7 7 8 8 8 8 7 8 7 7 7 6 5 5 5 4 4 4 4 5 4 3
5 6 6 6 5 7 5 8 8 7 9 9 10 9 10 9 9 10 11 9 5 9 9 8 9 9 7 8 7 7 8 8 7 6 6 6 5 5 4 4 4 4 3
4 5 6 6 6 7 7 7 7 5 8 10 9 9 9 10 11 12 11 8 7 9 10 9 9 11 10 9 8 7 7 7 7 8 10 7 7 5 5 5 5 5 4
5 6 6 6 7 7 6 8 8 7 9 8 8 9 10 10 11 12 11 8 10 10 11 11 9 12 13 17 14 12 14 14 11 9 6 7 8 8 6 5 6 5 5
5 5 6 6 6 7 6 6 7 8 9 9 8 8 9 10 11 11 11 10 10 10 14 10 12 16 18 13 13 18 14 13 9 7 4 4 5 4 4 5 6 4 4
Wind_Direction
89 59 38 359 17 350 348 354 350 335 331 324 322 318 312 302 286 310 288 278 314 309 306 317 318 329 327 324 338 334 309 296 294 299 298 308 315 329 328 306 304 314 317
71 29 29 359 312 7 358 358 350 340 337 329 326 319 315 328 326 318 325 330 309 310 317 315 327 348 326 326 326 329 311 301 307 303 310 335 1 342 327 324 317 313 319
3 52 352 325 328 327 346 351 349 341 346 340 332 327 325 331 319 355 337 320 317 320 322 315 326 319 326 328 329 323 316 312 311 292 313 342 345 357 340 341 331 319 327
309 314 304 341 338 329 334 346 343 345 349 343 336 326 327 323 22 358 337 326 312 313 314 314 331 341 323 329 322 320 313 320 315 317 318 335 349 6 344 340 339 328 329
290 305 340 306 304 331 343 331 318 341 346 340 337 335 336 348 26 352 338 321 311 332 311 317 332 315 342 323 335 325 318 305 309 322 329 337 350 354 353 340 324 324 305
307 292 306 321 299 299 308 323 321 334 338 336 338 343 7 346 355 344 335 322 325 316 317 326 327 320 337 357 331 320 305 292 304 320 329 336 334 354 350 342 334 339 333
274 295 313 316 306 313 319 312 319 321 321 327 332 345 1 347 355 336 329 326 311 326 333 324 314 330 0 349 334 315 312 304 245 308 322 333 329 345 339 336 343 318 298
298 298 316 317 319 318 313 308 315 310 312 318 315 333 348 344 278 331 330 314 318 334 320 323 325 326 32 353 331 322 321 315 7 324 326 316 324 326 317 331 315 308 272
304 314 327 322 320 317 318 330 320 317 311 302 307 331 313 313 174 290 340 324 336 335 334 324 341 334 358 333 329 322 327 318 329 331 302 280 266 261 262 317 349 348 315
344 329 316 320 320 318 329 322 318 313 301 329 313 320 293 254 188 211 314 326 321 328 324 315 291 285 315 334 329 322 321 322 322 315 307 316 272 302 190 91 4 351 327
312 310 304 316 319 296 324 320 314 315 318 302 301 299 301 150 45 223 275 322 334 324 317 317 321 327 342 326 308 309 316 316 316 308 316 318 325 334 346 9 106 53 334
314 297 322 322 315 329 318 311 314 296 293 292 293 304 344 23 51 45 307 294 311 318 315 317 320 324 316 308 303 328 297 299 324 333 331 335 344 342 343 335 324 178 223
310 321 320 317 305 322 310 301 300 328 339 339 337 346 349 360 348 6 345 334 334 332 322 316 302 316 309 289 288 305 298 326 338 336 326 324 329 320 311 323 336 300 221
326 320 320 312 330 310 313 320 332 337 355 341 342 348 340 341 349 347 337 333 334 333 333 324 311 312 307 309 323 322 329 343 342 321 319 322 325 317 329 345 333 333 302
338 319 317 321 298 295 315 325 313 11 354 344 5 350 345 342 353 337 328 335 338 342 320 333 349 343 352 340 338 344 346 342 349 339 322 324 326 327 328 335 342 338 352
317 347 337 310 311 325 318 329 90 84 121 133 187 285 351 39 347 325 317 318 324 327 341 344 339 339 336 339 339 336 334 333 346 332 324 317 324 334 333 323 356 352 349
331 325 329 289 317 328 329 330 331 142 170 208 233 262 256 304 306 316 319 321 354 3 339 331 328 328 328 327 325 328 329 327 329 325 329 315 310 349 334 334 348 339 347
336 306 318 332 328 341 330 330 323 0 360 347 225 242 258 289 305 310 329 336 348 347 330 326 323 321 320 317 319 320 318 321 326 328 319 312 310 355 330 336 341 340 338
301 344 335 316 300 313 316 332 355 6 0 343 349 340 339 353 300 227 38 359 336 331 327 321 314 311 313 311 307 308 308 310 315 307 305 310 319 356 320 321 323 321 316
337 112 268 297 322 353 343 346 356 20 357 356 340 345 347 336 335 351 348 347 335 324 319 316 316 311 304 303 302 299 300 304 307 305 303 304 322 341 306 310 313 316 316
304 297 240 285 1 357 359 334 11 16 0 353 339 28 0 326 333 342 332 337 331 325 322 317 316 310 306 306 302 297 292 289 286 290 298 305 305 292 290 291 289 287 277
324 334 346 350 352 358 348 328 27 8 356 350 352 344 331 331 333 327 328 328 325 310 312 312 309 309 308 303 304 303 298 291 281 276 273 270 265 268 270 275 282 285 282
356 343 353 356 359 324 337 21 27 358 1 4 353 344 340 337 333 327 333 339 350 327 323 315 312 311 309 305 302 293 289 284 278 268 263 262 257 251 250 258 271 275 273
10 339 339 350 11 321 10 23 18 1 25 3 355 345 340 335 331 327 335 343 342 327 324 322 318 314 311 311 302 290 280 284 287 279 270 257 251 241 241 240 243 250 243
2 347 351 354 353 352 358 27 7 352 23 12 356 343 341 335 335 333 333 346 333 325 326 325 321 321 320 320 314 324 312 296 279 271 263 253 249 248 240 233 230 226 221
349 356 348 353 3 345 10 13 353 5 24 360 357 353 340 335 334 335 335 336 324 327 329 326 323 325 325 324 331 324 317 315 311 292 247 235 245 235 211 202 199 173 148